User: anonymous   Login
Location: Edemissen
(51.7689°N, 9.8634°E)
Time: 22:12:12
(UTC+00:00)
Language:

Cosmos 1869 Rocket - Orbit

View from above orbital plane
View from above orbital plane
View from above satellite
View from above satellite

Ground track
Ground track

The orbit data is extracted from the following two-line orbital elements,

1 18215U 87062B   25322.39303735  .00000869  00000-0  97577-4 0  9999
2 18215  82.5098 277.9732 0021067  63.4367  53.8039 14.85480436 50986
Epoch (UTC): 18 November 2025 09:25:58
Eccentricity: 0.0021067
inclination: 82.5098°
perigee height: 597 km
apogee height: 627 km
right ascension of ascending node: 277.9732°
argument of perigee: 63.4367°
revolutions per day: 14.85480436
mean anomaly at epoch: 53.8039°
orbit number at epoch: 5098

The dashed part of the orbit path shows where the satellite is in the earth's shadow,  

DLR